Regional Weather Roundup
Issued by NWS

Home | Current Version | Previous Version | Text Only | Print | Product List | Glossary On
Versions: 1 2 3 4 5 6 7 8 9 10 11 12 13 14 15 16 17 18 19 20 21 22 23 24 25 26 27 28 29 30 31 32 33 34 35 36 37 38 39 40 41 42 43 44 45 46 47 48 49 50
000
ASUS44 KFWD 300303
RWRTX
NORTH TEXAS HOURLY WEATHER ROUNDUP
NATIONAL WEATHER SERVICE FORT WORTH TX
1000 PM CDT WED JUN 29 2016

NOTE: "FAIR" INDICATES FEW OR NO CLOUDS BELOW 12,000 FEET WITH NO
SIGNIFICANT WEATHER AND/OR OBSTRUCTIONS TO VISIBILITY.

TXZ118-119-300400-
DALLAS/FORT WORTH METROPLEX

CITY           SKY/WX    TMP DP  RH WIND       PRES   REMARKS
DFW AIRPORT    PTCLDY    85  65  51 SE6       29.97R
DALLAS LOVE    MOCLDY    87  66  49 E6        29.97S
FTW MEACHAM    CLEAR     86  64  47 SE7       29.98R
DAL-EXECUTIVE  CLEAR     79  67  66 CALM      29.98R
FTW-ALLIANCE   MOCLDY    80  64  58 SE5       29.98R
FTW-NAS-JRB    CLEAR     85  64  49 SE5       29.98R
FTW-SPINKS     CLEAR     80  70  72 CALM      30.00R
ARLINGTON      CLEAR     80  69  69 E3        29.98R
GRAND PRAIRIE  CLEAR     85  64  48 CALM      29.99R
ADDISON        CLEAR     86  64  48 E6          N/A
MESQUITE       CLEAR     80  65  60 CALM      29.98R
LANCASTER      CLEAR     80  70  71 CALM      29.99R
$$

TXZ091>094-102>105-117-120-121-131>134-300400-
NORTH CENTRAL TEXAS

CITY           SKY/WX    TMP DP  RH WIND       PRES   REMARKS
SHRMAN/DENISON PTCLDY    83  66  56 SE3       30.01R
BOWIE          PTCLDY    79  69  70 CALM      30.00S
BRIDGEPORT     CLOUDY    79  69  71 SE5       30.00S
DECATUR        CLOUDY    80  63  55 E5        30.01R
DENTON         MOCLDY    84  65  52 SE6       29.98R
MCKINNEY       CLEAR     80  69  69 CALM      29.99R
GREENVILLE     CLEAR     77  70  78 CALM      29.99R
ROCKWALL       CLEAR     82  67  62 S7        29.97S
TERRELL        CLEAR     81  67  62 NE3       29.98R
WAXAHACHIE     CLEAR     78  70  76 CALM      29.99S
CLEBURNE       CLEAR     82  70  65 CALM      30.01R
GRANBURY       CLEAR     82  67  60 SE3       30.00S
$$

TXZ083>090-098>101-113>116-127>130-139>142-154-155-300400-
WESTERN NORTH TEXAS

CITY           SKY/WX    TMP DP  RH WIND       PRES   REMARKS
WICHITA FALLS  CLEAR     78  68  71 SE7       29.98R
WF-KICKAPOO    CLEAR     82  68  63 SE7       29.99R
VERNON         CLEAR     80  65  60 SE6       30.00R
ABILENE        CLEAR     79  67  66 SE8       30.04R
ABILENE-DYESS  CLEAR     82  65  56 SE9       30.02R
CISCO          MOCLDY    79  68  69 SE7       30.03F
BRECKENRIDGE   CLEAR     82  66  58 SE6       29.99S
MINERAL WELLS  PTCLDY    79  65  62 SE7       29.98R
STEPHENVILLE   PTCLDY    78  68  69 E3        30.04S
COMANCHE       PTCLDY    80  69  70 SE5       30.02S
BROWNWOOD      MOCLDY    77  70  78 E3        30.02R
COLEMAN        CLEAR     79  64  58 E5        30.03S
$$

TXZ143>147-156>162-174-175-300400-
CENTRAL TEXAS

CITY           SKY/WX    TMP DP  RH WIND       PRES   REMARKS
WACO           CLEAR     82  67  60 E5        29.97R
WACO-MCGREGOR  CLEAR     83  70  64 E5        29.98R
HILLSBORO      CLEAR     77  66  69 E6        29.99R
CORSICANA      CLEAR     83  69  62 E6        29.98R
MEXIA          CLEAR     79  69  70 CALM      29.97R
CAMERON        PTCLDY    83  73  72 CALM      29.96R
KILLEEN        CLEAR     83  70  64 E6        29.98R
KILLEEN-SKYLRK CLEAR     83  71  67 E3        29.99R
FORT HOOD      CLEAR     82  70  67 E5        29.97R
HAMILTON       CLEAR     80  70  70 E5        30.02S
LAMPASAS       PTCLDY    81  72  75 E3        30.00R
$$

TXZ095>097-106>112-122>126-135>138-148>153-164>167-300400-
EAST TEXAS

CITY           SKY/WX    TMP DP  RH WIND       PRES   REMARKS
PARIS          CLEAR     81  63  54 SE5       29.99R
SULPHUR SPRNGS CLEAR     81  70  69 E3        30.01R
MOUNT PLEASANT CLEAR     78  71  78 CALM      30.00R
GILMER         CLEAR     78  69  75 CALM      29.99R
MINEOLA        CLEAR     75  72  88 CALM      29.99R
TYLER          CLEAR     84  68  58 E5        29.98R
LONGVIEW       CLEAR     77  70  79 CALM      29.97R
MARSHALL       CLEAR     75  71  86 CALM      30.00R
ATHENS         CLEAR     77  72  83 CALM      29.96S
PALESTINE      CLEAR     77  74  89 CALM      29.98S
JACKSONVILLE   CLEAR     81  69  68 CALM      30.01R
HENDERSON      CLEAR     76  71  83 CALM      29.99R
CENTER         CLEAR    N/A N/A N/A MISG      29.96S
NACOGDOCHES    CLEAR     77  68  73 E3        29.96R
LUFKIN         CLEAR     79  74  84 CALM      29.96R
$$

SUPPLEMENTAL OBSERVATIONS (CENTRAL)

CITY           SKY/WX    TMP DP  RH WIND       PRES   REMARKS
$$

SUPPLEMENTAL OBSERVATIONS (WEST)

CITY           SKY/WX    TMP DP  RH WIND       PRES   REMARKS
$$

SUPPLEMENTAL OBSERVATIONS (EAST)

CITY           SKY/WX    TMP DP  RH WIND       PRES   REMARKS
$$

SUPPLEMENTAL OBSERVATIONS ARE A COLLECTION OF AUTOMATED INSTRUMENTS
THAT ARE MAINTAINED BY A VARIETY OF FEDERAL AND STATE AGENCIES.
CERTAIN ELEMENTS...SUCH AS HUMIDITY VALUES AND SUSTAINED WIND
SPEEDS...MAY BE APPROXIMATED.





USA.gov is the U.S. government's official web portal to all federal, state and local government web resources and services.